Regional Weather Roundup
Issued by NWS

Home | Current Version | Previous Version | Text Only | Print | Product List | Glossary On
Versions: 1 2 3 4 5 6 7 8 9 10 11 12 13 14 15 16 17 18 19 20 21 22 23 24 25 26 27 28 29 30 31 32 33 34 35 36 37 38 39 40 41 42 43 44 45 46 47 48 49 50
144
ASUS44 KBMX 232110
RWRAL

ALABAMA REGIONAL WEATHER ROUNDUP
NATIONAL WEATHER SERVICE BIRMINGHAM AL
400 PM CDT SAT JUL 23 2016

NOTE: "FAIR" INDICATES FEW OR NO CLOUDS BELOW 12,000 FEET
WITH NO SIGNIFICANT WEATHER AND/OR OBSTRUCTIONS TO VISIBILITY.

THE REMARK "TC" DENOTES TEMPERATURE IN DEGREES CELSIUS.

ALZ001>011-014-016>018-020-232200-
NORTH ALABAMA

CITY           SKY/WX    TMP DP  RH WIND       PRES   REMARKS
MUSCLE SHOALS  MOSUNNY   93  74  53 VRB7      29.95F HX 103
HUNTSVILLE     PTSUNNY   87  71  58 W15G21    29.95S THUNDER HX  93
DECATUR        TSTM      76  71  85 E7G23     29.96R
HALEYVILLE     FAIR      86  76  71 CALM      30.00F HX  96
GADSDEN        CLOUDY    92  77  61 CALM      29.95F HX 105
$$

ALZ012-013-022-023-030>036-040>044-232200-
WEST CENTRAL ALABAMA

CITY           SKY/WX    TMP DP  RH WIND       PRES   REMARKS
TUSCALOOSA     CLOUDY    92  75  57 W8        29.94F HX 103
$$

ALZ015-024>027-033>036-040>044-232200-
CENTRAL ALABAMA

CITY           SKY/WX    TMP DP  RH WIND       PRES   REMARKS
BIRMINGHAM     CLOUDY    79  74  84 SE8       30.00R THUNDER
MONTGOMERY     MOSUNNY   94  73  50 SE7       29.96F HX 103
SHELBY CO ARPT MOSUNNY   92  72  51 S7        29.96F HX  99
MAXWELL AFB    MOSUNNY   93  74  53 S8        29.95F HX 103
GREENVILLE     FAIR      94  70  45 S7        29.97F HX 100
$$

ALZ019-021-028-029-037-038-045>048-232200-
EAST CENTRAL ALABAMA

CITY           SKY/WX    TMP DP  RH WIND       PRES   REMARKS
ANNISTON       PTSUNNY   82  69  64 S8G18     29.97F
ALEXANDER CITY MOSUNNY   93  77  60 S7        29.98F HX 107
AUBURN         NOT AVBL
$$

ALZ051>064-232200-
SOUTHWEST ALABAMA

CITY           SKY/WX    TMP DP  RH WIND       PRES   REMARKS
MOBILE         PTSUNNY   88  75  65 S10       29.97F HX  97
BROOKLEY FIELD PTSUNNY   89  76  65 S9        29.97F HX 100
EVERGREEN      PTSUNNY   92  73  53 VRB6      29.96F HX 100
$$

ALZ049-050-065>069-232200-
SOUTHEAST ALABAMA

CITY           SKY/WX    TMP DP  RH WIND       PRES   REMARKS
DOTHAN         MOSUNNY   91  70  49 SW7       30.01F HX  96
OZARK          SUNNY     92  74  54 SE3       29.97F HX 102
TROY           PTSUNNY   90  74  59 SE5       29.98F HX  99
EUFAULA        FAIR      96  71  44 S5        29.97S HX 103
$$




USA.gov is the U.S. government's official web portal to all federal, state and local government web resources and services.